www.pogodaiklimat.ru

Погода и климат >> Архив погоды >> Россия >> Марий-Эл >> Козьмодемьянск


ПОГОДА в Козьмодемьянске

  • Прогноз погоды в Козьмодемьянске
  • Монитор погоды в Козьмодемьянске

АРХИВ ПОГОДЫ в Козьмодемьянске

Время (UTC), дата Ветер
(напр.,м/с)
 
Видим.   Явления Облачность Т
(С)
Тd
(С)
f
(%)
Тe
(С)
Тes
(С)
Комфортность P
(гПа)
Po
(гПа)
Тmin
(С)
Tmax
(С)
R
(мм)
R24
(мм)
S
(см)
18 16.07 Ю 2-2
{3}
50 км 10/0
[Cs]
+19.1 +11.1 60 +21 +21 комфорт 1012.4 999.8
21 16.07 Ю 2-2
{3}
10 км 6/0
[Ci fib]
+17.5 +10.2 62 +18 +18 1012.9 1000.2
00 17.07 ЮВ 2-2
{3}
50 км 10/0
[Ci ing]
+16.0 +10.7 71 +16 +16 1013.2 1000.5
03 17.07 ЮВ 2-2
{3}
50 км 10/0
[Ac trans Ci ing]
+17.6 +14.3 81 +18 +20 1013.1 1000.5 +15.9
06 17.07 В 2-3
{4}
50 км 10/0
[Ac trans Ci sp]
+20.4 +14.4 68 +24 +29 комфорт 1012.6 1000.1
09 17.07 ЮВ 3-4
{5}
50 км 10/3 600 м
[Cb calv Ac trans]
+22.4 +14.8 62 +26 +29 жарко 1011.6 999.2
12 17.07 ЮВ 4-6
{10}
50 км в посл. час ливневой дождь 10/6 500 м
[Cb cap Ac trans]
+20.4 +14.0 67 +23 +24 комфорт 1012.1 999.6
15 17.07 В 3-5
{6}
50 км 10/6 500 м
[Cb cap Ac trans]
+20.8 +16.4 76 +25 +25 комфорт 1009.7 997.3 +23.2 0.0
18 17.07 В 3-6
{7}
50 км 10/8 540 м
[Cb cap Ac trans]
+19.0 +15.2 79 +20 +20 1009.6 997.1
21 17.07 В 3-5
{6}
10 км 10/0
[Ac und]
+18.4 +15.0 81 +19 +19 1008.9 996.4
00 18.07 В 3-5
{7}
50 км 10/0
[Ac und]
+17.7 +15.0 84 +18 +18 1007.8 995.3
03 18.07 ЮВ 3-7
{7}
50 км {ливн. осадки} 10/10 500 м
[Cb cap]
+17.8 +15.9 89 +18 +18 1007.5 995.0 +17.2 0.3
06 18.07 В 3-5
{7}
50 км {ливн. осадки} 10/10 480 м
[Cb cap]
+18.2 +16.9 92 +19 +19 1007.8 995.3
09 18.07 СВ 2-5
{6}
50 км в посл. час ливневой дождь 8/8 500 м
[Cb cap]
+19.4 +17.3 88 +22 +25 комфорт 1006.9 994.5
12 18.07 В 2-3
{6}
50 км {ливн. осадки} 10/10 630 м
[Cb cap]
+22.2 +17.9 77 +27 +27 душно 1006.9 994.5
15 18.07 штиль 0
{3}
50 км 8/3 600 м
[Cb calv As trans]
+22.9 +18.3 75 +29 +29 очень
душно
1006.6 994.3 +23.5 0.0
18 18.07 З 1-2
{2}
50 км 8/4 600 м
[Cb calv As trans]
+20.8 +18.2 85 +26 +26 душно 1007.0 994.6
21 18.07 ЮЗ 1-2
{2}
10 км 3/0
[Ac trans]
+18.2 +17.5 96 +20 +20 1007.6 995.1
00 19.07 ЮЗ 2-3
{5}
50 км 3/0
[Ci fib]
+18.2 +17.0 93 +19 +19 1007.7 995.2
03 19.07 ЮЗ 2-4
{4}
50 км 3/0
[Ci fib]
+19.1 +16.9 87 +21 +23 комфорт 1008.0 995.6 +17.9
06 19.07 ЮЗ 2-3
{4}
50 км 8/0
[Ci fib]
+23.9 +16.2 62 +27 +36 жарко 1008.0 995.7
09 19.07 З 3-6
{7}
50 км 6/4 300 м
[Cb calv Ci fib]
+24.9 +11.8 44 +26 +33 жарко 1008.0 995.7
12 19.07 З 2-4
{7}
50 км 8/4 300 м
[Cb calv Ci fib]
+26.4 +11.8 40 +28 +33 жарко 1007.7 995.5
15 19.07 ЮЗ 2-5
{7}
50 км 6/4 300 м
[Cb calv Ci fib]
+25.5 +13.0 46 +27 +28 жарко 1007.9 995.7 +27.1
18 19.07 ЮЗ 2-3
{6}
50 км 3/0
[Ci fib]
+20.3 +11.4 57 +23 +23 комфорт 1008.8 996.4
21 19.07 ЮЗ 3-4
{5}
10 км ясно +18.6 +11.1 62 +19 +19 1009.0 996.5
00 20.07 ЮЗ 2-4
{5}
50 км 3/0
[Ac trans Ci fib]
+17.3 +11.4 68 +18 +18 1009.5 996.9
03 20.07 штиль 0
{5}
50 км 6/3 300 м
[Cb calv Ac trans Ci fib]
+16.8 +12.5 76 +17 +18 1009.9 997.3 +16.4
06 20.07 Ю 3-4
{6}
50 км 4/0
[Ci fib]
+21.2 +12.6 58 +23 +31 комфорт 1009.3 996.9
09 20.07 ЮЗ 5-8
{10}
50 км 9/9 570 м
[Cb cap]
+21.7 +13.0 58 +24 +25 комфорт 1009.8 997.4
12 20.07 ЮЗ 4-7
{9}
50 км 9/9 570 м
[Cb cap]
+21.6 +12.2 55 +24 +24 комфорт 1010.0 997.6
15 20.07 З 4-6
{7}
50 км {ливн. осадки} 10/4 600 м
[Cb cap Ac trans Ci fib]
+20.5 +14.7 69 +23 +24 комфорт 1010.7 998.2 +22.4 0.7
18 20.07 ЮЗ 4-6
{8}
50 км {ливн. осадки} 8/0
[Ac trans]
+18.0 +12.8 72 +18 +18 1011.1 998.5
21 20.07 ЮЗ 3-4
{6}
10 км ясно +15.6 +12.7 83 +15 +15 1011.4 998.7
00 21.07 ЮЗ 3-4
{6}
50 км ясно +15.0 +12.6 86 +14 +14 1011.6 998.8
03 21.07 ЮЗ 3-4
{6}
50 км 9/3 300 м
[Cb calv Ac trans]
+16.4 +13.9 85 +16 +17 1011.6 998.9 +14.9 0.0
06 21.07 З 2-3
{5}
50 км 9/4 600 м
[Cb calv Ac trans]
+18.8 +15.6 82 +20 +23 1012.0 999.4
09 21.07 З 4-9
{9}
50 км гроза без осадков 9/6 570 м
[Cb cap Ac trans]
+20.8 +14.7 68 +24 +26 комфорт 1011.4 998.9
12 21.07 ЮЗ 3-5
{9}
50 км {гроза, ливн. осадки} 8/3 600 м
[Cb calv Ac trans Ci fib]
+20.8 +15.4 71 +24 +28 комфорт 1011.8 999.3
15 21.07 З 3-6
{9}
50 км 8/3 600 м
[Cb calv Ac trans Ci fib]
+20.9 +14.4 66 +24 +25 комфорт 1012.1 999.6 +21.5 0.4
18 21.07 ЮЗ 2-4
{6}
50 км 6/3 600 м
[Cb calv Ac trans]
+17.1 +13.0 77 +17 +17 1012.0 999.3
21 21.07 З 4-7
{8}
10 км 3/0
[Ac trans]
+15.8 +12.3 80 +15 +15 1012.2 999.4
00 22.07 З 2-5
{7}
50 км 10/10 270 м
[St]
+15.4 +14.5 94 +15 +15 1012.1 999.4
03 22.07 З 3-6
{7}
50 км 10/10 450 м
[Cb calv]
+15.4 +14.3 93 +15 +15 1012.2 999.5 +15.0
06 22.07 З 3-6
{8}
35 км слаб. ливневой дождь 10/10 240 м
[Cb cap]
+16.0 +14.0 88 +16 +16 1012.0 999.3
09 22.07 З 3-6
{7}
50 км {ливн. осадки} 10/10 450 м
[Cb cap]
+18.0 +13.6 75 +18 +18 1012.1 999.5
12 22.07 З 2-4
{8}
50 км в посл. час ливневой дождь 9/6 480 м
[Cb cap Cs]
+17.2 +15.0 87 +18 +21 1011.7 999.1
15 22.07 СЗ 3-6
{9}
50 км {ливн. осадки} 8/6 540 м
[Cb calv Ci fib]
+18.1 +12.9 72 +18 +19 1012.1 999.5 +19.4 6
18 22.07 З 2-4
{9}
50 км {ливн. осадки} 6/4 600 м
[Sc diur, vesp Ac trans]
+16.3 +12.3 77 +16 +16 1012.2 999.5
21 22.07 З 3-5
{7}
10 км ясно +15.6 +12.9 84 +15 +15 1012.1 999.4
00 23.07 З 3-5
{7}
50 км 4/4 300 м
[St]
+14.3 +12.8 91 +13 +13 1012.4 999.6
03 23.07 З 2-4
{5}
50 км 10/6 360 м
[St Ac trans]
+14.1 +12.8 92 +14 +14 1013.0 1000.2 +13.4
06 23.07 З 3-4
{4}
50 км 10/10 400 м
[St]
+15.6 +12.9 84 +15 +15 1013.5 1000.8
09 23.07 СЗ 2-3
{5}
50 км 8/6 480 м
[Cb calv Ac trans Ci fib]
+18.6 +11.8 65 +20 +24 1014.1 1001.5
12 23.07 С 1-2
{5}
50 км 6/4 300 м
[Cb calv Ac trans Ci fib]
+22.0 +13.1 57 +25 +30 комфорт 1014.0 1001.6

 

Местоположение метеостанции Козьмодемьянск (Марий-Эл, Россия): широта 56.33 долгота 46.58 высота над уровнем моря 107 м.

В архиве по умолчанию представлена погода в Козьмодемьянске за последнюю неделю. Архивные данные за месяц целиком и за предыдущие месяцы, начиная с января 2011 года, Вы можете получить, выбрав интересующий диапазон дат из раскрывающегося списка и нажав кнопку "Ввод!".


*Определитесь, кто Вы:
робот инопланетянин человек

Внимание! Время в таблицах - всемирное. Для получения местного времени необходимо прибавить поправку, которая равна 3 ч.

Смотрите также архив погоды в соседних городах и на ближайших метеорологических станциях:

Погода в Чебоксарах (Чувашия, Россия) (54 км)
Погода в Йошкар-Оле (Марий-Эл, Россия) (80 км)
Погода в Санчурске (Кировская область, Россия) (85 км)
Погода в Воскресенском (Нижегородская область, Россия) (88 км)
Погода в Лысково (Нижегородская область, Россия) (102 км)
Погода в Канаше (Чувашия, Россия) (106 км)
Погода в Сергаче (Нижегородская область, Россия) (112 км)
Погода в Красных Баках (Нижегородская область, Россия) (124 км)
Погода в Порецком (Чувашия, Россия) (129 км)
Погода в Вязовых (Татарстан, Россия) (133 км)

Пояснения к столбцам:

Ветер - указаны скорость ветра в м/с - средняя за 10 мин, порывы в срок и между сроками (в фигурных скобках) и направление, откуда дует ветер: С - северный, СВ - северо-восточный, В - восточный, ЮВ - юго-восточный, Ю - южный, ЮЗ - юго-западный, З - западный, СЗ - северо-западный.
Видимость - горизонтальная дальность видимости в метрах или километрах. При видимости от 1 до 10 км при отсутствии осадков обычно наблюдается дымка, при ухудшении видимости до 1 км и менее - туман. В сухую погоду видимость может ухудшаться дымом, пылью или мглою.
Явления - указаны атмосферные явления, наблюдавшиеся в срок или в последний час перед сроком; фигурными скобками обозначены явления, наблюдавшиеся между сроками (за 1-3 часа до срока); квадратными скобками обозначены град или гололедные отложения с указанием их диаметра в мм.
Облачность - указаны через наклонную черту общая и нижняя облачность в баллах и высота нижней границы облаков в метрах; квадратными скобками обозначены формы облаков: Ci - перистые, Cs - перисто-слоистые, Cc - перисто-кучевые, Ac - высококучевые, As - высокослоистые, Sc - слоисто-кучевые, Ns - слоисто-дождевые, Cu - кучевые, Cb - кучево-дождевые. Подробнее классификацию облаков см. в Атласе облаков (PDF).
T - Температура воздуха - температура, измеренная на высоте 2 м над землей.
Td - Температура точки росы - температура, при понижении до которой содержащийся в воздухе водяной пар достигнет насыщения.
f - Относительная влажность воздуха - влажноcть воздуха, измеренная на высоте 2 м над землей.
Te - Эффективная температура - температура, которую ощущает одетый по сезону человек в тени. Характеристика душности погоды. При расчете учитывается влияние влажности воздуха и скорости ветра на теплоощущения человека.
Tes - Эффективная температура на солнце - температура, которую ощущает человек, с поправкой на солнечный нагрев. Характеристика знойности погоды. Зависит от высоты солнца над горизонтом, облачности и скорости ветра. Ночью, в пасмурную погоду, а также при ветре 12 м/с и более поправка равна нулю.
P - Атмосферное давление - приведенное к уровню моря атмосферное давление.
Po - Атмосферное давление - измеренное на уровне метеостанции атмосферное давление.
Tmin - Минимальная температура - минимум температуры воздуха на высоте 2 м над землей.
Tmax - Максимальная температура - максимум температуры воздуха на высоте 2 м над землей.
R - Количество осадков - Количество выпавших осадков за период времени, мм. При наведении курсора мыши на число - период времени, за который выпало указанное количество осадков.
R24 - Количество осадков - Количество выпавших осадков за 24 часа, мм.
S - Снежный покров - Высота снежного покрова, см. При наведении курсора мыши на число - состояние снежного покрова и степень покрытия местности в баллах.